Weather History for West Plains, MO

Change the Weather History Date:

Sunday, March 2, 2014

  Actual Average Record
Temperature  
Mean Temperature 22 °F 42 °F  
Max Temperature 36 °F 54 °F 78 °F (1976)
Min Temperature 8 °F 31 °F 5 °F (1980)
Degree Days  
Heating Degree Days 43 23  
Month to date heating degree days 61 46  
Since 1 July heating degree days 3859 3510  
Cooling Degree Days 0 0  
Month to date cooling degree days 0 0  
Year to date cooling degree days 0 0  
Moisture  
Dew Point 14 °F    
Average Humidity 81    
Maximum Humidity 92    
Minimum Humidity 70    
Precipitation  
Precipitation 0.75 in 0.09 in 1.60 in (1997)
Month to date precipitation 0.75 0.19  
Year to date precipitation 2.60 5.75  
Sea Level Pressure  
Sea Level Pressure 30.19 in    
Wind  
Wind Speed 14 mph (North)    
Max Wind Speed 21 mph    
Max Gust Speed 28 mph    
Visibility 3 miles    
Events Fog , Rain , Snow , Thunderstorm    
T = Trace of Precipitation, MM = Missing Value Source: NWS Daily Summary

Daily Weather History Graph

Daily Weather History Graph

Search for Another Location

Airport:

Trip Planner

Search our weather history database for the weather conditions in past years. The results will help you decide how hot, cold, wet, or windy it might be!

Date:

Astronomy

Mar. 02, 2014 Rise Set
Actual Time 6:37 AM CST 6:02 PM CST
Civil Twilight 6:11 AM CST 6:28 PM CST
Nautical Twilight 5:41 AM CST 6:58 PM CST
Astronomical Twilight 5:11 AM CST 7:29 PM CST
Moon 7:11 AM CST (3/2) 7:55 PM CST (3/2)
Length of Visible Light 12h 17m
Length of Day
11h 25m
Waxing Crescent, 3% of the Moon is Illuminated
Mar 2
Waxing Crescent
Mar 8
First Quarter
Mar 16
Full
Mar 23
Last Quarter
Mar 30
New

Hourly Weather History & Observations

Time (CST) Temp. Windchill Dew Point Humidity Pressure Visibility Wind Dir Wind Speed Gust Speed Precip Events Conditions
12:53 AM 32.0 °F 22.1 °F 26.1 °F 79% 30.11 in 5.0 mi NNE 13.8 mph - 0.00 in   Haze
1:53 AM 30.9 °F 20.7 °F 25.0 °F 79% 30.09 in 6.0 mi NNE 13.8 mph - N/A   Haze
2:53 AM 28.9 °F 18.2 °F 25.0 °F 85% 30.08 in 3.0 mi NNE 13.8 mph - 0.00 in Rain Light Freezing Rain
3:20 AM 28.9 °F 18.6 °F 25.0 °F 85% 30.06 in 4.0 mi North 12.7 mph - 0.00 in   Overcast
3:53 AM 28.0 °F 17.0 °F 25.0 °F 88% 30.10 in 3.0 mi North 13.8 mph - 0.00 in   Overcast
3:56 AM 28.0 °F 18.1 °F 25.0 °F 88% 30.08 in 2.5 mi NNE 11.5 mph - N/A   Overcast
4:09 AM 28.0 °F 17.0 °F 25.0 °F 88% 30.11 in 2.0 mi North 13.8 mph 21.9 mph 0.00 in Rain Light Freezing Rain
4:12 AM 28.0 °F 17.0 °F 25.0 °F 88% 30.09 in 1.8 mi NNE 13.8 mph 24.2 mph 0.00 in Rain Light Freezing Rain
4:31 AM 28.0 °F 17.5 °F 26.1 °F 92% 30.11 in 2.0 mi North 12.7 mph 20.7 mph 0.02 in Rain Light Freezing Rain
4:53 AM 27.0 °F 14.3 °F 25.0 °F 92% 30.15 in 4.0 mi North 17.3 mph 23.0 mph 0.03 in Rain Light Freezing Rain
5:25 AM 27.0 °F 16.7 °F 25.0 °F 92% 30.15 in 4.0 mi North 11.5 mph - 0.01 in Rain Light Freezing Rain
5:35 AM 27.0 °F 15.6 °F 25.0 °F 92% 30.15 in 4.0 mi North 13.8 mph - 0.01 in   Overcast
5:53 AM 27.0 °F 15.2 °F 25.0 °F 92% 30.17 in 4.0 mi NNE 15.0 mph 19.6 mph 0.01 in   Overcast
6:23 AM 27.0 °F 18.0 °F 25.0 °F 92% 30.15 in 6.0 mi NNE 9.2 mph - 0.00 in   Overcast
6:34 AM 27.0 °F 17.3 °F 24.1 °F 89% 30.17 in 7.0 mi North 10.4 mph - 0.00 in Rain Light Freezing Rain
6:45 AM 27.0 °F 18.0 °F 25.0 °F 92% 30.16 in 8.0 mi NNE 9.2 mph - 0.00 in   Overcast
6:53 AM 28.0 °F 20.0 °F 25.0 °F 88% 30.17 in 8.0 mi NNE 8.1 mph - 0.00 in Rain Light Freezing Rain
6:59 AM 28.0 °F 20.8 °F 26.1 °F 92% 30.17 in 4.0 mi North 6.9 mph - 0.00 in   Overcast
7:04 AM 28.9 °F 18.6 °F 26.1 °F 89% 30.16 in 2.0 mi North 12.7 mph - 0.00 in Snow Light Snow
7:10 AM 28.0 °F 16.5 °F 26.1 °F 92% 30.18 in 1.0 mi North 15.0 mph 20.7 mph 0.00 in Snow Light Snow
7:17 AM 27.0 °F 14.7 °F 24.1 °F 89% 30.17 in 2.0 mi North 16.1 mph 23.0 mph 0.00 in Snow Light Snow
7:25 AM 25.0 °F 13.1 °F 21.0 °F 85% 30.19 in 8.0 mi North 13.8 mph 23.0 mph 0.00 in   Overcast
7:33 AM 24.1 °F 11.5 °F 19.9 °F 84% 30.19 in 10.0 mi North 15.0 mph 21.9 mph 0.00 in   Overcast
7:53 AM 21.9 °F 9.2 °F 19.0 °F 89% 30.22 in 5.0 mi North 13.8 mph - 0.00 in   Overcast
8:11 AM 21.9 °F 7.8 °F 18.0 °F 85% 30.20 in 5.0 mi NNE 17.3 mph 25.3 mph N/A   Overcast
8:32 AM 21.0 °F 7.6 °F 18.0 °F 88% 30.21 in 3.0 mi NNE 15.0 mph - N/A   Overcast
8:39 AM 21.0 °F 7.1 °F 18.0 °F 88% 30.21 in 2.0 mi NNE 16.1 mph 25.3 mph N/A   Overcast
8:53 AM 21.0 °F 7.1 °F 18.0 °F 88% 30.25 in 2.0 mi North 16.1 mph - N/A   Overcast
9:05 AM 21.0 °F 8.1 °F 17.1 °F 85% 30.22 in 3.0 mi North 13.8 mph 23.0 mph 0.00 in   Overcast
9:53 AM 19.0 °F 6.1 °F 15.1 °F 85% 30.25 in 5.0 mi North 12.7 mph 23.0 mph 0.00 in   Overcast
10:53 AM 18.0 °F 4.2 °F 14.0 °F 84% 30.30 in 2.0 mi North 13.8 mph - 0.00 in   Overcast
10:58 AM 18.0 °F - 14.0 °F 84% 30.27 in 1.8 mi North - - 0.01 in Rain Light Freezing Rain
11:06 AM 18.0 °F - 15.1 °F 88% 30.23 in 1.0 mi North - - 0.04 in Rain , Thunderstorm Light Freezing Rain
11:13 AM 17.1 °F - 15.1 °F 92% 30.25 in 0.8 mi North - - 0.06 in Rain , Thunderstorm Light Freezing Rain
11:21 AM 17.1 °F - 14.0 °F 88% 30.25 in 0.8 mi North - - 0.06 in Snow Light Snow
11:53 AM 17.1 °F - 14.0 °F 88% 30.29 in 0.5 mi North - - 0.08 in Fog , Snow Light Snow
12:16 PM 17.1 °F - 12.9 °F 84% 30.25 in 0.8 mi North - - 0.02 in Snow Light Snow
12:30 PM 16.0 °F - 12.9 °F 88% 30.17 in 0.2 mi North - - 0.07 in Fog Light Freezing Fog
12:53 PM 16.0 °F - 12.9 °F 88% 30.26 in 0.5 mi North - - 0.09 in Fog , Snow Light Snow
1:18 PM 16.0 °F - 10.9 °F 81% 30.13 in 1.0 mi North - - 0.05 in   Overcast
1:20 PM 16.0 °F - 10.9 °F 81% 30.16 in 1.5 mi North - - 0.05 in   Overcast
1:22 PM 16.0 °F - 10.9 °F 81% 30.17 in 2.0 mi North - - 0.05 in   Overcast
1:25 PM 16.0 °F - 12.0 °F 84% 30.14 in 3.0 mi North - - 0.05 in   Overcast
1:34 PM 16.0 °F - 12.0 °F 84% 30.20 in 4.0 mi North - - 0.05 in   Overcast
1:51 PM 15.8 °F - 10.4 °F 79% 30.17 in 6.0 mi North - - 0.05 in   Haze
1:53 PM 16.0 °F - 10.9 °F 81% 30.21 in 8.0 mi North - - 0.05 in   Overcast
2:22 PM 16.0 °F - 10.9 °F 81% 30.14 in 7.0 mi North - - N/A   Overcast
2:45 PM 15.1 °F - 10.0 °F 80% 30.21 in 7.0 mi North - - N/A   Overcast
2:53 PM 15.1 °F - 10.0 °F 80% 30.25 in 5.0 mi North - - 0.00 in   Overcast
3:05 PM 15.1 °F - 10.0 °F 80% 30.18 in 2.0 mi North - - 0.01 in   Overcast
3:21 PM 15.1 °F - 10.0 °F 80% 30.17 in 2.0 mi North - - 0.03 in   Overcast
3:31 PM 15.1 °F - 10.0 °F 80% 30.14 in 1.5 mi North - - 0.03 in Snow Light Snow
3:46 PM 15.1 °F - 10.0 °F 80% 30.18 in 0.8 mi North - - 0.03 in Snow Light Snow
3:53 PM 15.1 °F - 10.9 °F 84% 30.25 in 0.8 mi North - - 0.03 in Snow Light Snow
4:12 PM 15.1 °F - 10.0 °F 80% 30.25 in 1.0 mi North - - 0.00 in Snow Light Snow
4:19 PM 15.1 °F - 10.0 °F 80% 30.25 in 2.0 mi North - - 0.00 in Snow Light Snow
4:30 PM 15.1 °F - 10.0 °F 80% 30.26 in 1.2 mi North - - 0.02 in Snow Light Snow
4:38 PM 15.1 °F - 10.0 °F 80% 30.25 in 1.0 mi North - - 0.04 in   Overcast
4:45 PM 14.0 °F - 10.0 °F 84% 30.22 in 0.5 mi North - - 0.05 in Fog , Snow Light Snow
4:53 PM 14.0 °F - 10.0 °F 84% 30.24 in 0.5 mi North - - 0.05 in Fog , Snow Light Snow
5:06 PM 14.0 °F - 10.9 °F 88% 30.17 in 0.8 mi North - - 0.04 in Snow Light Snow
5:12 PM 14.0 °F - 10.0 °F 84% 30.17 in 0.8 mi North - - 0.07 in   Mist
5:28 PM 12.9 °F - 9.0 °F 84% 30.15 in 1.0 mi North - - 0.13 in   Overcast
5:35 PM 12.9 °F - 9.0 °F 84% 30.15 in 1.5 mi North - - 0.14 in   Overcast
5:42 PM 12.9 °F - 9.0 °F 84% 30.13 in 2.0 mi North - - 0.15 in   Overcast
5:53 PM 12.9 °F - 8.1 °F 81% 30.19 in 2.0 mi North - - 0.17 in   Overcast
6:08 PM 12.9 °F - 9.0 °F 84% 30.14 in 1.8 mi North - - 0.02 in   Overcast
6:16 PM 12.9 °F - 9.0 °F 84% 30.14 in 1.8 mi North - - 0.03 in   Overcast
6:28 PM 12.9 °F - 9.0 °F 84% 30.18 in 2.5 mi North - - 0.04 in   Overcast
6:53 PM 12.9 °F - 8.1 °F 81% 30.22 in 2.5 mi North - - 0.08 in   Overcast
7:09 PM 12.9 °F - 8.1 °F 81% 30.18 in 1.8 mi North - - 0.01 in Snow Light Snow
7:19 PM 12.0 °F - 8.1 °F 84% 30.22 in 3.0 mi North - - 0.01 in Snow Light Snow
7:43 PM 12.0 °F - 7.0 °F 80% 30.19 in 6.0 mi North - - 0.02 in   Overcast
7:51 PM 12.2 °F - 6.8 °F 79% 30.19 in 4.0 mi North - - 0.02 in   Overcast
7:53 PM 12.0 °F - 7.0 °F 80% 30.24 in 4.0 mi North - - 0.02 in   Overcast
8:07 PM 12.0 °F - 7.0 °F 80% 30.20 in 2.5 mi North - - 0.02 in   Overcast
8:15 PM 10.9 °F - 6.1 °F 81% 30.22 in 2.5 mi North - - 0.02 in   Overcast
8:22 PM 10.9 °F - 7.0 °F 84% 30.25 in 3.0 mi North - - 0.02 in   Overcast
8:39 PM 10.9 °F - 7.0 °F 84% 30.24 in 1.8 mi North - - 0.04 in Snow Light Snow
8:53 PM 10.9 °F - 6.1 °F 81% 30.29 in 2.5 mi North - - 0.07 in   Overcast
8:58 PM 10.9 °F - 6.1 °F 81% 30.22 in 4.0 mi North - - 0.00 in   Overcast
9:14 PM 10.9 °F - 6.1 °F 81% 30.21 in 2.0 mi North - - 0.02 in Snow Light Snow
9:27 PM 10.0 °F - 5.0 °F 80% 30.21 in 3.0 mi North - - 0.03 in   Overcast
9:53 PM 10.0 °F - 3.9 °F 76% 30.27 in 4.0 mi North - - 0.06 in   Overcast
10:53 PM 9.0 °F - 3.0 °F 77% 30.29 in 10.0 mi North - - 0.01 in   Overcast
11:53 PM 8.1 °F - 1.0 °F 73% 30.30 in 5.0 mi North - - 0.00 in Snow Light Snow